Home   Weather   Santa Clara   Past weeks
Flag for USA

Past Weather in Santa Clara, California, USA — Yesterday and Last 2 Weeks

Now
53 °F

Mostly cloudy.


Feels Like: 50 °F
Forecast: 57 / 48 °F
Wind: 9 mph from Southeast

Location: San Jose International Airport

Current Time: Apr 5, 2020 at 3:11:44 am

Latest Report: Apr 5, 2020 at 1:53 am


Visibility: 10 mi

Pressure: 29.74 "Hg

Humidity: 83%

Dew Point: 48 °F

Location of Santa ClaraLocation

Past Weather in Santa Clara — Graph

°F

Santa Clara Temperature Yesterday

Maximum temperature yesterday: 60 °F (at 2:53 pm)
Minimum temperature yesterday: 42 °F (at 5:53 am)
Average temperature yesterday: 52 °F

High & Low Weather Summary for the Past Weeks

 TemperatureHumidityPressure
High67 °F (Mar 22, 12:53 pm)93% (Mar 22, 11:53 pm)30.32 "Hg (Mar 22, 11:53 pm)
Low37 °F (Mar 26, 5:53 am)24% (Apr 2, 2:53 pm)29.74 "Hg (Apr 5, 1:53 am)
Average53 °F69%30.10 "Hg
* Reported Mar 21 1:53 am — Apr 5 1:53 am, Santa Clara. Weather by CustomWeather, © 2020

Note: Actual official high and low records may vary slightly from our data, if they occured in-between our weather recording intervals... More about our weather records

Santa Clara Weather History for the Previous 24 Hours

Scroll right to see more
 ConditionsComfort  
Time TempWeatherWind HumidityBarometerVisibility
1:53 am
Sun, Apr 5
53 °FMostly cloudy.9 mph83%29.74 "Hg10 mi
1:13 am54 °FMostly cloudy.10 mph86%29.75 "Hg10 mi
12:22 am54 °FLight rain. Mostly cloudy.3 mph93%29.76 "Hg8 mi
11:53 pm
Sat, Apr 4
54 °FHeavy rain. Fog.3 mph90%29.76 "Hg2 mi
10:53 pm54 °FLight rain. Fog.12 mph90%29.76 "Hg6 mi
9:53 pm55 °FMostly cloudy.13 mph83%29.78 "Hg10 mi
8:53 pm56 °FLight rain. Mostly cloudy.7 mph81%29.78 "Hg10 mi
7:53 pm56 °FMostly cloudy.9 mph81%29.79 "Hg10 mi
6:53 pm57 °FBroken clouds.12 mph78%29.80 "Hg9 mi
5:53 pm58 °FBroken clouds.12 mph75%29.80 "Hg9 mi
4:53 pm60 °FLight rain. Broken clouds.13 mph67%29.82 "Hg9 mi
3:53 pm60 °FPartly sunny.14 mph62%29.84 "Hg10 mi
2:53 pm60 °FPartly sunny.15 mph60%29.86 "Hg10 mi
1:53 pm58 °FPartly sunny.13 mph62%29.88 "Hg10 mi
12:53 pm58 °FPartly sunny.12 mph56%29.90 "Hg10 mi
10:53 am53 °FBroken clouds.13 mph61%29.93 "Hg10 mi
9:53 am50 °FBroken clouds.10 mph66%29.94 "Hg10 mi
8:53 am47 °FBroken clouds.6 mph71%29.94 "Hg10 mi
7:53 am46 °FPartly sunny.5 mph77%29.95 "Hg10 mi
6:53 am44 °FBroken clouds.5 mph76%29.95 "Hg10 mi
5:53 am42 °FPassing clouds.6 mph82%29.96 "Hg10 mi
4:53 am43 °FClear.5 mph76%29.96 "Hg10 mi
3:53 am43 °FClear.3 mph76%29.97 "Hg10 mi
Weather by CustomWeather, © 2020

See weather overview

Advertising